Time,TemperatureF,DewpointF,PressureIn,WindDirection,WindDirectionDegrees,WindSpeedMPH,WindSpeedGustMPH,Humidity,HourlyPrecipIn,Conditions,Clouds,dailyrainin,SoftwareType,DateUTC
2013-06-29 00:03:00,64.6,54.5,28.69,NW,315,0.0,2.0,70,0.00,,,0.00,meteohub,2013-06-29 05:03:00,
2013-06-29 00:08:00,64.8,54.7,28.69,WNW,292,1.0,0.0,70,0.00,,,0.00,meteohub,2013-06-29 05:08:00,
2013-06-29 00:13:00,64.8,54.7,28.69,NNW,338,0.0,2.0,70,0.00,,,0.00,meteohub,2013-06-29 05:13:00,
2013-06-29 00:18:00,64.8,54.7,28.69,West,270,0.0,3.0,70,0.00,,,0.00,meteohub,2013-06-29 05:18:00,
2013-06-29 00:23:00,64.9,54.9,28.69,WNW,292,0.0,3.0,70,0.00,,,0.00,meteohub,2013-06-29 05:23:00,
2013-06-29 00:28:00,64.9,54.9,28.69,NW,315,0.0,3.0,70,0.00,,,0.00,meteohub,2013-06-29 05:28:00,
2013-06-29 00:33:00,64.9,54.9,28.69,NNW,338,1.0,2.0,70,0.00,,,0.00,meteohub,2013-06-29 05:33:00,
2013-06-29 00:38:00,64.8,54.7,28.69,NNW,338,3.0,3.0,70,0.00,,,0.00,meteohub,2013-06-29 05:38:00,
2013-06-29 00:43:00,64.8,54.7,28.69,NNW,338,3.0,3.0,70,0.00,,,0.00,meteohub,2013-06-29 05:43:00,
2013-06-29 00:48:00,64.8,54.7,28.69,WNW,292,3.0,3.0,70,0.00,,,0.00,meteohub,2013-06-29 05:48:00,
2013-06-29 00:53:00,64.9,55.4,28.69,WNW,292,2.0,3.0,71,0.00,,,0.00,meteohub,2013-06-29 05:53:00,
2013-06-29 00:58:00,64.9,55.4,28.69,WNW,292,0.0,3.0,71,0.00,,,0.00,meteohub,2013-06-29 05:58:00,
2013-06-29 01:03:00,64.9,55.4,28.69,NNW,338,0.0,5.0,71,0.00,,,0.00,meteohub,2013-06-29 06:03:00,
2013-06-29 01:08:00,64.8,55.2,28.69,WNW,292,4.0,5.0,71,0.00,,,0.00,meteohub,2013-06-29 06:08:00,
2013-06-29 01:13:00,64.8,55.2,28.66,WNW,292,0.0,4.0,71,0.00,,,0.00,meteohub,2013-06-29 06:13:00,
2013-06-29 01:18:00,64.8,55.2,28.66,WNW,292,3.0,4.0,71,0.00,,,0.00,meteohub,2013-06-29 06:18:00,
2013-06-29 01:23:00,64.6,55.0,28.66,WNW,292,2.0,4.0,71,0.00,,,0.00,meteohub,2013-06-29 06:23:00,
2013-06-29 01:28:00,64.8,55.6,28.66,WNW,292,4.0,4.0,72,0.00,,,0.00,meteohub,2013-06-29 06:28:00,
2013-06-29 01:33:00,64.8,55.6,28.66,WNW,292,0.0,5.0,72,0.00,,,0.00,meteohub,2013-06-29 06:33:00,
2013-06-29 01:38:00,64.8,55.6,28.66,NW,315,4.0,5.0,72,0.00,,,0.00,meteohub,2013-06-29 06:38:00,
2013-06-29 01:43:00,64.6,55.4,28.66,WNW,292,3.0,5.0,72,0.00,,,0.00,meteohub,2013-06-29 06:43:00,
2013-06-29 01:48:00,64.6,55.4,28.66,WNW,292,4.0,5.0,72,0.00,,,0.00,meteohub,2013-06-29 06:48:00,
2013-06-29 01:53:00,64.4,55.2,28.66,WNW,292,0.0,5.0,72,0.00,,,0.00,meteohub,2013-06-29 06:53:00,
2013-06-29 01:58:00,64.4,55.2,28.66,NNW,338,0.0,5.0,72,0.00,,,0.00,meteohub,2013-06-29 06:58:00,
2013-06-29 02:03:00,64.2,55.0,28.66,NW,315,2.0,6.0,72,0.00,,,0.00,meteohub,2013-06-29 07:03:00,
2013-06-29 02:08:00,64.2,55.0,28.66,NW,315,1.0,6.0,72,0.00,,,0.00,meteohub,2013-06-29 07:08:00,
2013-06-29 02:13:00,64.0,54.9,28.66,NNW,338,0.0,5.0,72,0.00,,,0.00,meteohub,2013-06-29 07:13:00,
2013-06-29 02:18:00,63.9,54.7,28.66,NNW,338,0.0,4.0,72,0.00,,,0.00,meteohub,2013-06-29 07:18:00,
2013-06-29 02:23:00,63.7,54.5,28.66,North,0,0.0,4.0,72,0.00,,,0.00,meteohub,2013-06-29 07:23:00,
2013-06-29 02:28:00,63.7,54.5,28.66,NNW,338,0.0,3.0,72,0.00,,,0.00,meteohub,2013-06-29 07:28:00,
2013-06-29 02:33:00,63.7,54.5,28.66,NNW,338,0.0,0.0,72,0.00,,,0.00,meteohub,2013-06-29 07:33:00,
2013-06-29 02:38:00,63.7,54.5,28.66,WNW,292,0.0,0.0,72,0.00,,,0.00,meteohub,2013-06-29 07:38:00,
2013-06-29 02:43:00,63.7,54.5,28.66,WNW,292,0.0,0.0,72,0.00,,,0.00,meteohub,2013-06-29 07:43:00,
2013-06-29 02:48:00,63.7,54.5,28.66,NW,315,0.0,0.0,72,0.00,,,0.00,meteohub,2013-06-29 07:48:00,
2013-06-29 02:53:00,63.7,54.9,28.66,NW,315,1.0,0.0,73,0.00,,,0.00,meteohub,2013-06-29 07:53:00,
2013-06-29 02:58:00,63.9,55.0,28.66,NNW,338,0.0,3.0,73,0.00,,,0.00,meteohub,2013-06-29 07:58:00,
2013-06-29 03:03:00,63.9,55.0,28.66,NNW,338,3.0,3.0,73,0.00,,,0.00,meteohub,2013-06-29 08:03:00,
2013-06-29 03:08:00,63.9,55.0,28.66,North,0,0.0,4.0,73,0.00,,,0.00,meteohub,2013-06-29 08:08:00,
2013-06-29 03:13:00,63.9,55.0,28.66,NNW,338,0.0,4.0,73,0.00,,,0.00,meteohub,2013-06-29 08:13:00,
2013-06-29 03:18:00,64.0,55.2,28.66,NNW,338,0.0,4.0,73,0.00,,,0.00,meteohub,2013-06-29 08:18:00,
2013-06-29 03:23:00,64.0,55.2,28.66,NNW,338,2.0,4.0,73,0.00,,,0.00,meteohub,2013-06-29 08:23:00,
2013-06-29 03:28:00,63.9,55.0,28.66,NNW,338,0.0,4.0,73,0.00,,,0.00,meteohub,2013-06-29 08:28:00,
2013-06-29 03:33:00,63.9,55.0,28.66,NNW,338,2.0,3.0,73,0.00,,,0.00,meteohub,2013-06-29 08:33:00,
2013-06-29 03:38:00,63.9,55.0,28.66,WNW,292,4.0,6.0,73,0.00,,,0.00,meteohub,2013-06-29 08:38:00,
2013-06-29 03:43:00,63.9,55.0,28.66,NNW,338,0.0,6.0,73,0.00,,,0.00,meteohub,2013-06-29 08:43:00,
2013-06-29 03:48:00,63.9,55.0,28.66,NNW,338,1.0,6.0,73,0.00,,,0.00,meteohub,2013-06-29 08:48:00,
2013-06-29 03:53:00,63.7,54.9,28.66,WNW,292,1.0,5.0,73,0.00,,,0.00,meteohub,2013-06-29 08:53:00,
2013-06-29 03:58:00,63.7,54.9,28.66,WSW,248,3.0,5.0,73,0.00,,,0.00,meteohub,2013-06-29 08:58:00,
2013-06-29 04:03:00,63.7,54.9,28.66,WNW,292,2.0,5.0,73,0.00,,,0.00,meteohub,2013-06-29 09:03:00,
2013-06-29 04:08:00,63.5,54.7,28.66,NNW,338,2.0,5.0,73,0.00,,,0.00,meteohub,2013-06-29 09:08:00,
2013-06-29 04:13:00,63.5,54.7,28.66,NNW,338,2.0,5.0,73,0.00,,,0.00,meteohub,2013-06-29 09:13:00,
2013-06-29 04:18:00,63.3,54.5,28.66,WNW,292,2.0,4.0,73,0.00,,,0.00,meteohub,2013-06-29 09:18:00,
2013-06-29 04:23:00,63.3,54.5,28.66,WNW,292,2.0,4.0,73,0.00,,,0.00,meteohub,2013-06-29 09:23:00,
2013-06-29 04:28:00,63.3,54.5,28.69,WNW,292,4.0,5.0,73,0.00,,,0.00,meteohub,2013-06-29 09:28:00,
2013-06-29 04:33:00,63.3,54.5,28.69,NNW,338,3.0,5.0,73,0.00,,,0.00,meteohub,2013-06-29 09:33:00,
2013-06-29 04:38:00,63.3,54.5,28.69,NNW,338,3.0,5.0,73,0.00,,,0.00,meteohub,2013-06-29 09:38:00,
2013-06-29 04:43:00,63.3,54.5,28.66,WNW,292,2.0,5.0,73,0.00,,,0.00,meteohub,2013-06-29 09:43:00,
2013-06-29 04:48:00,63.5,54.7,28.66,WNW,292,7.0,7.0,73,0.00,,,0.00,meteohub,2013-06-29 09:48:00,
2013-06-29 04:53:00,63.5,54.7,28.66,North,0,2.0,7.0,73,0.00,,,0.00,meteohub,2013-06-29 09:53:00,
2013-06-29 04:58:00,63.5,54.7,28.69,NNW,338,4.0,7.0,73,0.00,,,0.00,meteohub,2013-06-29 09:58:00,
2013-06-29 05:03:00,63.5,54.7,28.69,NW,315,1.0,7.0,73,0.00,,,0.00,meteohub,2013-06-29 10:03:00,
2013-06-29 05:08:00,63.5,54.7,28.69,NW,315,2.0,7.0,73,0.00,,,0.00,meteohub,2013-06-29 10:08:00,
2013-06-29 05:13:00,63.7,54.9,28.69,WNW,292,4.0,7.0,73,0.00,,,0.00,meteohub,2013-06-29 10:13:00,
2013-06-29 05:18:00,63.7,54.9,28.69,WNW,292,6.0,6.0,73,0.00,,,0.00,meteohub,2013-06-29 10:18:00,
2013-06-29 05:23:00,63.7,54.9,28.69,WNW,292,4.0,6.0,73,0.00,,,0.00,meteohub,2013-06-29 10:23:00,
2013-06-29 05:28:00,63.7,54.9,28.69,NNW,338,3.0,6.0,73,0.00,,,0.00,meteohub,2013-06-29 10:28:00,
2013-06-29 05:33:00,63.9,55.0,28.69,NNW,338,3.0,6.0,73,0.00,,,0.00,meteohub,2013-06-29 10:33:00,
2013-06-29 05:38:00,63.9,55.0,28.69,NW,315,4.0,6.0,73,0.00,,,0.00,meteohub,2013-06-29 10:38:00,
2013-06-29 05:43:00,63.9,55.0,28.69,NNW,338,3.0,6.0,73,0.00,,,0.00,meteohub,2013-06-29 10:43:00,
2013-06-29 05:48:00,64.0,55.2,28.69,NNW,338,3.0,6.0,73,0.00,,,0.00,meteohub,2013-06-29 10:48:00,
2013-06-29 05:53:00,64.0,54.9,28.69,WNW,292,4.0,6.0,72,0.00,,,0.00,meteohub,2013-06-29 10:53:00,
2013-06-29 05:58:00,64.0,54.9,28.69,NNW,338,0.0,6.0,72,0.00,,,0.00,meteohub,2013-06-29 10:58:00,
2013-06-29 06:03:00,64.0,54.9,28.69,NNW,338,3.0,6.0,72,0.00,,,0.00,meteohub,2013-06-29 11:03:00,
2013-06-29 06:08:00,64.0,54.5,28.69,NNW,338,0.0,6.0,71,0.00,,,0.00,meteohub,2013-06-29 11:08:00,
2013-06-29 06:13:00,64.2,54.7,28.69,NW,315,0.0,8.0,71,0.00,,,0.00,meteohub,2013-06-29 11:13:00,
2013-06-29 06:18:00,64.2,54.3,28.69,NNW,338,0.0,8.0,70,0.00,,,0.00,meteohub,2013-06-29 11:18:00,
2013-06-29 06:23:00,64.4,53.6,28.69,NNW,338,6.0,9.0,68,0.00,,,0.00,meteohub,2013-06-29 11:23:00,
2013-06-29 06:28:00,64.4,52.9,28.69,WNW,292,0.0,9.0,66,0.00,,,0.00,meteohub,2013-06-29 11:28:00,
2013-06-29 06:33:00,64.6,51.8,28.69,NNW,338,7.0,7.0,63,0.00,,,0.00,meteohub,2013-06-29 11:33:00,
2013-06-29 06:38:00,64.4,50.7,28.69,NNW,338,5.0,9.0,61,0.00,,,0.00,meteohub,2013-06-29 11:38:00,
2013-06-29 06:43:00,64.4,49.8,28.69,WNW,292,6.0,9.0,59,0.00,,,0.00,meteohub,2013-06-29 11:43:00,
2013-06-29 06:48:00,64.4,49.3,28.69,WNW,292,7.0,9.0,58,0.00,,,0.00,meteohub,2013-06-29 11:48:00,
2013-06-29 06:53:00,64.2,49.1,28.69,NNW,338,4.0,11.0,58,0.00,,,0.00,meteohub,2013-06-29 11:53:00,
2013-06-29 06:58:00,64.2,50.9,28.69,NNW,338,4.0,11.0,62,0.00,,,0.00,meteohub,2013-06-29 11:58:00,
2013-06-29 07:03:00,64.0,52.0,28.69,NW,315,8.0,11.0,65,0.00,,,0.00,meteohub,2013-06-29 12:03:00,
2013-06-29 07:08:00,63.9,53.1,28.69,West,270,3.0,10.0,68,0.00,,,0.00,meteohub,2013-06-29 12:08:00,
2013-06-29 07:13:00,63.9,53.1,28.69,NW,315,4.0,10.0,68,0.00,,,0.00,meteohub,2013-06-29 12:13:00,
2013-06-29 07:18:00,63.9,53.4,28.69,NNW,338,0.0,10.0,69,0.00,,,0.00,meteohub,2013-06-29 12:18:00,
2013-06-29 07:23:00,63.9,53.4,28.69,North,0,3.0,8.0,69,0.00,,,0.00,meteohub,2013-06-29 12:23:00,
2013-06-29 07:28:00,63.9,53.4,28.69,West,270,4.0,8.0,69,0.00,,,0.00,meteohub,2013-06-29 12:28:00,
2013-06-29 07:33:00,63.7,53.2,28.69,WNW,292,5.0,10.0,69,0.00,,,0.00,meteohub,2013-06-29 12:33:00,
2013-06-29 07:38:00,63.7,53.2,28.69,WNW,292,9.0,10.0,69,0.00,,,0.00,meteohub,2013-06-29 12:38:00,
2013-06-29 07:43:00,63.5,53.2,28.69,WNW,292,6.0,10.0,69,0.00,,,0.00,meteohub,2013-06-29 12:43:00,
2013-06-29 07:48:00,63.5,53.6,28.69,NNW,338,5.0,11.0,70,0.00,,,0.00,meteohub,2013-06-29 12:48:00,
2013-06-29 07:53:00,63.3,53.4,28.69,North,0,4.0,11.0,70,0.00,,,0.00,meteohub,2013-06-29 12:53:00,
2013-06-29 07:58:00,63.5,54.0,28.69,NNW,338,4.0,11.0,71,0.00,,,0.00,meteohub,2013-06-29 12:58:00,
2013-06-29 08:04:00,63.5,54.0,28.69,WNW,292,6.0,8.0,71,0.00,,,0.00,meteohub,2013-06-29 13:04:00,
2013-06-29 08:09:00,63.5,54.0,28.69,NNE,22,0.0,7.0,71,0.00,,,0.00,meteohub,2013-06-29 13:09:00,
2013-06-29 08:14:00,63.5,54.0,28.69,West,270,3.0,8.0,71,0.00,,,0.00,meteohub,2013-06-29 13:14:00,
2013-06-29 08:19:00,63.7,53.8,28.69,NNW,338,4.0,8.0,70,0.00,,,0.00,meteohub,2013-06-29 13:19:00,
2013-06-29 08:24:00,63.7,53.2,28.69,ENE,68,5.0,8.0,69,0.00,,,0.00,meteohub,2013-06-29 13:24:00,
2013-06-29 08:29:00,63.9,52.3,28.69,NW,315,6.0,8.0,66,0.00,,,0.00,meteohub,2013-06-29 13:29:00,
2013-06-29 08:34:00,64.2,50.9,28.69,NW,315,4.0,8.0,62,0.00,,,0.00,meteohub,2013-06-29 13:34:00,
2013-06-29 08:39:00,64.2,47.3,28.69,WNW,292,3.0,7.0,54,0.00,,,0.00,meteohub,2013-06-29 13:39:00,
2013-06-29 08:44:00,64.4,46.4,28.69,NNW,338,6.0,9.0,52,0.00,,,0.00,meteohub,2013-06-29 13:44:00,
2013-06-29 08:49:00,64.8,46.8,28.69,NNW,338,0.0,9.0,52,0.00,,,0.00,meteohub,2013-06-29 13:49:00,
2013-06-29 08:54:00,65.1,46.6,28.69,NNW,338,2.0,9.0,51,0.00,,,0.00,meteohub,2013-06-29 13:54:00,
2013-06-29 08:59:00,65.5,46.4,28.69,North,0,2.0,8.0,50,0.00,,,0.00,meteohub,2013-06-29 13:59:00,
2013-06-29 09:04:00,65.7,46.0,28.69,NNW,338,3.0,7.0,49,0.00,,,0.00,meteohub,2013-06-29 14:04:00,
2013-06-29 09:09:00,65.7,46.0,28.69,NNW,338,3.0,6.0,49,0.00,,,0.00,meteohub,2013-06-29 14:09:00,
2013-06-29 09:14:00,65.5,45.3,28.69,NNE,22,4.0,6.0,48,0.00,,,0.00,meteohub,2013-06-29 14:14:00,
2013-06-29 09:19:00,65.3,45.7,28.69,NNW,338,4.0,6.0,49,0.00,,,0.00,meteohub,2013-06-29 14:19:00,
2013-06-29 09:24:00,65.3,46.2,28.69,WNW,292,2.0,9.0,50,0.00,,,0.00,meteohub,2013-06-29 14:24:00,
2013-06-29 09:29:00,65.1,46.6,28.69,NNW,338,0.0,9.0,51,0.00,,,0.00,meteohub,2013-06-29 14:29:00,
2013-06-29 09:34:00,65.1,47.1,28.69,NW,315,2.0,9.0,52,0.00,,,0.00,meteohub,2013-06-29 14:34:00,
2013-06-29 09:39:00,65.3,47.3,28.69,NNW,338,0.0,7.0,52,0.00,,,0.00,meteohub,2013-06-29 14:39:00,
2013-06-29 09:44:00,65.1,46.6,28.69,WNW,292,3.0,7.0,51,0.00,,,0.00,meteohub,2013-06-29 14:44:00,
2013-06-29 09:49:00,64.9,46.4,28.69,WNW,292,2.0,7.0,51,0.00,,,0.00,meteohub,2013-06-29 14:49:00,
2013-06-29 09:54:00,64.9,46.4,28.69,North,0,3.0,6.0,51,0.00,,,0.00,meteohub,2013-06-29 14:54:00,
2013-06-29 09:59:00,65.1,46.6,28.71,East,90,0.0,6.0,51,0.00,,,0.00,meteohub,2013-06-29 14:59:00,
2013-06-29 10:04:00,65.1,46.6,28.71,NNW,338,5.0,6.0,51,0.00,,,0.00,meteohub,2013-06-29 15:04:00,
2013-06-29 10:09:00,65.5,46.4,28.71,WNW,292,1.0,6.0,50,0.00,,,0.00,meteohub,2013-06-29 15:09:00,
2013-06-29 10:14:00,65.7,46.0,28.71,NNW,338,0.0,5.0,49,0.00,,,0.00,meteohub,2013-06-29 15:14:00,
2013-06-29 10:19:00,66.0,45.9,28.71,WNW,292,0.0,5.0,48,0.00,,,0.00,meteohub,2013-06-29 15:19:00,
2013-06-29 10:24:00,66.9,46.6,28.71,North,0,3.0,5.0,48,0.00,,,0.00,meteohub,2013-06-29 15:24:00,
2013-06-29 10:29:00,67.6,46.8,28.71,WNW,292,2.0,5.0,47,0.00,,,0.00,meteohub,2013-06-29 15:29:00,
2013-06-29 10:34:00,67.6,45.0,28.71,ENE,68,3.0,5.0,44,0.00,,,0.00,meteohub,2013-06-29 15:34:00,
2013-06-29 10:39:00,67.8,45.7,28.71,NNW,338,0.0,5.0,45,0.00,,,0.00,meteohub,2013-06-29 15:39:00,
2013-06-29 10:44:00,68.2,45.5,28.71,NW,315,0.0,4.0,44,0.00,,,0.00,meteohub,2013-06-29 15:44:00,
2013-06-29 10:49:00,68.7,45.9,28.71,NNE,22,3.0,4.0,44,0.00,,,0.00,meteohub,2013-06-29 15:49:00,
2013-06-29 10:54:00,68.7,45.3,28.71,NNW,338,2.0,3.0,43,0.00,,,0.00,meteohub,2013-06-29 15:54:00,
2013-06-29 10:59:00,68.7,44.8,28.71,WNW,292,4.0,6.0,42,0.00,,,0.00,meteohub,2013-06-29 15:59:00,
2013-06-29 11:04:00,69.3,45.1,28.71,NNW,338,1.0,6.0,42,0.00,,,0.00,meteohub,2013-06-29 16:04:00,
2013-06-29 11:09:00,70.3,45.0,28.71,WNW,292,4.0,6.0,40,0.00,,,0.00,meteohub,2013-06-29 16:09:00,
2013-06-29 11:14:00,71.1,44.2,28.71,West,270,4.0,4.0,38,0.00,,,0.00,meteohub,2013-06-29 16:14:00,
2013-06-29 11:19:00,71.6,43.3,28.71,NNW,338,0.0,5.0,36,0.00,,,0.00,meteohub,2013-06-29 16:19:00,
2013-06-29 11:24:00,72.5,43.3,28.71,NNE,22,2.0,6.0,35,0.00,,,0.00,meteohub,2013-06-29 16:24:00,
2013-06-29 11:29:00,73.0,43.0,28.69,NNE,22,3.0,6.0,34,0.00,,,0.00,meteohub,2013-06-29 16:29:00,
2013-06-29 11:34:00,73.8,43.7,28.69,WNW,292,1.0,6.0,34,0.00,,,0.00,meteohub,2013-06-29 16:34:00,
2013-06-29 11:39:00,73.8,42.1,28.69,North,0,3.0,6.0,32,0.00,,,0.00,meteohub,2013-06-29 16:39:00,
2013-06-29 11:44:00,74.1,42.4,28.71,North,0,3.0,5.0,32,0.00,,,0.00,meteohub,2013-06-29 16:44:00,
2013-06-29 11:49:00,74.1,42.4,28.71,WNW,292,4.0,5.0,32,0.00,,,0.00,meteohub,2013-06-29 16:49:00,
2013-06-29 11:54:00,73.4,41.7,28.71,WNW,292,3.0,6.0,32,0.00,,,0.00,meteohub,2013-06-29 16:54:00,
2013-06-29 11:59:00,73.0,42.3,28.71,NNW,338,3.0,6.0,33,0.00,,,0.00,meteohub,2013-06-29 16:59:00,
2013-06-29 12:04:00,73.4,42.6,28.71,NNW,338,2.0,6.0,33,0.00,,,0.00,meteohub,2013-06-29 17:04:00,
2013-06-29 12:09:00,72.7,41.9,28.71,NNW,338,4.0,6.0,33,0.00,,,0.00,meteohub,2013-06-29 17:09:00,
2013-06-29 12:14:00,72.0,42.1,28.71,NNW,338,5.0,7.0,34,0.00,,,0.00,meteohub,2013-06-29 17:14:00,
2013-06-29 12:19:00,72.0,42.8,28.71,NNW,338,4.0,7.0,35,0.00,,,0.00,meteohub,2013-06-29 17:19:00,
2013-06-29 12:24:00,73.4,43.3,28.71,NNW,338,0.0,8.0,34,0.00,,,0.00,meteohub,2013-06-29 17:24:00,
2013-06-29 12:29:00,74.7,43.7,28.71,NNW,338,3.0,8.0,33,0.00,,,0.00,meteohub,2013-06-29 17:29:00,
2013-06-29 12:34:00,75.7,43.0,28.71,ENE,68,0.0,8.0,31,0.00,,,0.00,meteohub,2013-06-29 17:34:00,
2013-06-29 12:39:00,76.6,43.7,28.71,North,0,3.0,6.0,31,0.00,,,0.00,meteohub,2013-06-29 17:39:00,
2013-06-29 12:44:00,77.4,42.6,28.71,North,0,4.0,6.0,29,0.00,,,0.00,meteohub,2013-06-29 17:44:00,
2013-06-29 12:50:00,76.8,41.4,28.71,WNW,292,4.0,5.0,28,0.00,,,0.00,meteohub,2013-06-29 17:50:00,
2013-06-29 12:55:00,75.9,40.5,28.71,NNW,338,2.0,5.0,28,0.00,,,0.00,meteohub,2013-06-29 17:55:00,
2013-06-29 13:00:00,76.8,42.3,28.71,NNE,22,1.0,6.0,29,0.00,,,0.00,meteohub,2013-06-29 18:00:00,
2013-06-29 13:05:00,77.2,40.6,28.71,WNW,292,5.0,6.0,27,0.00,,,0.00,meteohub,2013-06-29 18:05:00,
2013-06-29 13:10:00,78.8,42.1,28.71,North,0,2.0,7.0,27,0.00,,,0.00,meteohub,2013-06-29 18:10:00,
2013-06-29 13:15:00,79.0,40.3,28.71,NNE,22,3.0,7.0,25,0.00,,,0.00,meteohub,2013-06-29 18:15:00,
2013-06-29 13:20:00,79.7,38.7,28.71,WNW,292,5.0,7.0,23,0.00,,,0.00,meteohub,2013-06-29 18:20:00,
2013-06-29 13:25:00,81.0,38.7,28.71,ENE,68,0.0,6.0,22,0.00,,,0.00,meteohub,2013-06-29 18:25:00,
2013-06-29 13:30:00,81.7,37.9,28.71,NNW,338,4.0,6.0,21,0.00,,,0.00,meteohub,2013-06-29 18:30:00,
2013-06-29 13:35:00,81.7,37.9,28.71,NNE,22,0.0,5.0,21,0.00,,,0.00,meteohub,2013-06-29 18:35:00,
2013-06-29 13:40:00,81.5,37.8,28.71,ESE,112,0.0,5.0,21,0.00,,,0.00,meteohub,2013-06-29 18:40:00,
2013-06-29 13:45:00,80.4,36.9,28.71,WNW,292,4.0,5.0,21,0.00,,,0.00,meteohub,2013-06-29 18:45:00,
2013-06-29 13:50:00,80.6,37.0,28.71,NNW,338,2.0,9.0,21,0.00,,,0.00,meteohub,2013-06-29 18:50:00,
2013-06-29 13:55:00,81.9,38.1,28.71,ESE,112,1.0,9.0,21,0.00,,,0.00,meteohub,2013-06-29 18:55:00,
2013-06-29 14:00:00,81.3,36.5,28.71,ENE,68,4.0,9.0,20,0.00,,,0.00,meteohub,2013-06-29 19:00:00,
2013-06-29 14:05:00,81.3,36.5,28.71,North,0,4.0,6.0,20,0.00,,,0.00,meteohub,2013-06-29 19:05:00,
2013-06-29 14:10:00,82.2,38.5,28.71,ENE,68,2.0,6.0,21,0.00,,,0.00,meteohub,2013-06-29 19:10:00,
2013-06-29 14:15:00,81.9,36.9,28.71,NNW,338,4.0,6.0,20,0.00,,,0.00,meteohub,2013-06-29 19:15:00,
2013-06-29 14:20:00,79.0,38.1,28.71,NNW,338,9.0,9.0,23,0.00,,,0.00,meteohub,2013-06-29 19:20:00,
2013-06-29 14:25:00,77.5,39.9,28.71,WNW,292,3.0,9.0,26,0.00,,,0.00,meteohub,2013-06-29 19:25:00,
2013-06-29 14:30:00,77.0,39.6,28.71,North,0,4.0,9.0,26,0.00,,,0.00,meteohub,2013-06-29 19:30:00,
2013-06-29 14:35:00,76.5,41.9,28.71,NNE,22,6.0,11.0,29,0.00,,,0.00,meteohub,2013-06-29 19:35:00,
2013-06-29 14:40:00,76.3,40.8,28.71,North,0,6.0,11.0,28,0.00,,,0.00,meteohub,2013-06-29 19:40:00,
2013-06-29 14:45:00,75.6,41.2,28.71,North,0,6.0,13.0,29,0.00,,,0.00,meteohub,2013-06-29 19:45:00,
2013-06-29 14:50:00,75.0,42.4,28.71,NNW,338,7.0,13.0,31,0.00,,,0.00,meteohub,2013-06-29 19:50:00,
2013-06-29 14:55:00,75.6,41.9,28.71,NNW,338,5.0,13.0,30,0.00,,,0.00,meteohub,2013-06-29 19:55:00,
2013-06-29 15:00:00,75.9,43.2,28.71,NW,315,10.0,11.0,31,0.00,,,0.00,meteohub,2013-06-29 20:00:00,
2013-06-29 15:05:00,76.1,42.4,28.71,WNW,292,6.0,11.0,30,0.00,,,0.00,meteohub,2013-06-29 20:05:00,
2013-06-29 15:10:00,74.5,41.9,28.71,NNE,22,5.0,12.0,31,0.00,,,0.00,meteohub,2013-06-29 20:10:00,
2013-06-29 15:15:00,73.6,41.9,28.71,NNW,338,5.0,12.0,32,0.00,,,0.00,meteohub,2013-06-29 20:15:00,
2013-06-29 15:20:00,72.7,41.9,28.71,NNW,338,6.0,11.0,33,0.00,,,0.00,meteohub,2013-06-29 20:20:00,
2013-06-29 15:25:00,71.6,41.7,28.71,NNW,338,5.0,10.0,34,0.00,,,0.00,meteohub,2013-06-29 20:25:00,
2013-06-29 15:30:00,70.9,42.6,28.71,North,0,7.0,11.0,36,0.00,,,0.00,meteohub,2013-06-29 20:30:00,
2013-06-29 15:35:00,70.3,42.8,28.71,NNE,22,4.0,11.0,37,0.00,,,0.00,meteohub,2013-06-29 20:35:00,
2013-06-29 15:40:00,70.5,43.0,28.71,ENE,68,0.0,11.0,37,0.00,,,0.00,meteohub,2013-06-29 20:40:00,
2013-06-29 15:45:00,70.0,42.6,28.74,NNW,338,0.0,11.0,37,0.00,,,0.00,meteohub,2013-06-29 20:45:00,
2013-06-29 15:50:00,69.8,43.2,28.74,NNE,22,5.0,11.0,38,0.00,,,0.00,meteohub,2013-06-29 20:50:00,
2013-06-29 15:55:00,69.3,43.3,28.74,North,0,4.0,11.0,39,0.00,,,0.00,meteohub,2013-06-29 20:55:00,
2013-06-29 16:00:00,69.3,43.3,28.74,NNW,338,8.0,11.0,39,0.00,,,0.00,meteohub,2013-06-29 21:00:00,
2013-06-29 16:05:00,69.3,43.9,28.74,NW,315,0.0,11.0,40,0.00,,,0.00,meteohub,2013-06-29 21:05:00,
2013-06-29 16:10:00,68.9,43.5,28.74,NNE,22,8.0,8.0,40,0.00,,,0.00,meteohub,2013-06-29 21:10:00,
2013-06-29 16:15:00,68.7,44.1,28.74,NNW,338,4.0,10.0,41,0.00,,,0.00,meteohub,2013-06-29 21:15:00,
2013-06-29 16:20:00,68.7,44.8,28.74,ENE,68,2.0,10.0,42,0.00,,,0.00,meteohub,2013-06-29 21:20:00,
2013-06-29 16:25:00,68.2,44.2,28.74,NNW,338,8.0,10.0,42,0.00,,,0.00,meteohub,2013-06-29 21:25:00,
2013-06-29 16:30:00,68.2,44.8,28.74,NNE,22,6.0,8.0,43,0.00,,,0.00,meteohub,2013-06-29 21:30:00,
2013-06-29 16:35:00,68.2,44.8,28.74,NNW,338,8.0,9.0,43,0.00,,,0.00,meteohub,2013-06-29 21:35:00,
2013-06-29 16:40:00,68.0,44.8,28.74,North,0,4.0,10.0,43,0.00,,,0.00,meteohub,2013-06-29 21:40:00,
2013-06-29 16:45:00,68.0,44.8,28.74,NNE,22,4.0,10.0,43,0.00,,,0.00,meteohub,2013-06-29 21:45:00,
2013-06-29 16:50:00,68.0,44.8,28.74,NNW,338,4.0,10.0,43,0.00,,,0.00,meteohub,2013-06-29 21:50:00,
2013-06-29 16:55:00,67.8,44.6,28.74,NNE,22,0.0,10.0,43,0.00,,,0.00,meteohub,2013-06-29 21:55:00,
2013-06-29 17:00:00,67.5,44.2,28.74,NNW,338,6.0,10.0,43,0.00,,,0.00,meteohub,2013-06-29 22:00:00,
2013-06-29 17:05:00,67.5,44.8,28.74,NNE,22,6.0,10.0,44,0.00,,,0.00,meteohub,2013-06-29 22:05:00,
2013-06-29 17:10:00,67.6,45.0,28.74,North,0,5.0,10.0,44,0.00,,,0.00,meteohub,2013-06-29 22:10:00,
2013-06-29 17:15:00,67.6,45.0,28.74,NNW,338,2.0,9.0,44,0.00,,,0.00,meteohub,2013-06-29 22:15:00,
2013-06-29 17:20:00,68.2,44.8,28.74,NW,315,9.0,9.0,43,0.00,,,0.00,meteohub,2013-06-29 22:20:00,
2013-06-29 17:25:00,67.8,44.6,28.74,NNE,22,6.0,9.0,43,0.00,,,0.00,meteohub,2013-06-29 22:25:00,
2013-06-29 17:30:00,67.5,44.8,28.74,NNW,338,8.0,9.0,44,0.00,,,0.00,meteohub,2013-06-29 22:30:00,
2013-06-29 17:35:00,67.5,44.8,28.74,NNW,338,8.0,9.0,44,0.00,,,0.00,meteohub,2013-06-29 22:35:00,
2013-06-29 17:40:00,67.1,44.4,28.74,NNE,22,8.0,11.0,44,0.00,,,0.00,meteohub,2013-06-29 22:40:00,
2013-06-29 17:45:00,67.1,45.1,28.74,NNW,338,5.0,11.0,45,0.00,,,0.00,meteohub,2013-06-29 22:45:00,
2013-06-29 17:50:00,67.1,45.1,28.74,NNW,338,3.0,11.0,45,0.00,,,0.00,meteohub,2013-06-29 22:50:00,
2013-06-29 17:55:00,67.1,45.1,28.74,NNW,338,4.0,10.0,45,0.00,,,0.00,meteohub,2013-06-29 22:55:00,
2013-06-29 18:00:00,67.3,45.3,28.74,WNW,292,6.0,10.0,45,0.00,,,0.00,meteohub,2013-06-29 23:00:00,
2013-06-29 18:05:00,67.3,45.3,28.74,WSW,248,4.0,9.0,45,0.00,,,0.00,meteohub,2013-06-29 23:05:00,
2013-06-29 18:10:00,67.3,45.3,28.74,NNE,22,3.0,9.0,45,0.00,,,0.00,meteohub,2013-06-29 23:10:00,
2013-06-29 18:16:00,67.1,45.7,28.74,NNW,338,4.0,9.0,46,0.00,,,0.00,meteohub,2013-06-29 23:16:00,
2013-06-29 18:21:00,66.9,45.5,28.74,NNW,338,2.0,11.0,46,0.00,,,0.00,meteohub,2013-06-29 23:21:00,
2013-06-29 18:26:00,66.6,45.7,28.74,SSW,202,4.0,11.0,47,0.00,,,0.00,meteohub,2013-06-29 23:26:00,
2013-06-29 18:31:00,66.7,45.9,28.74,NNW,338,0.0,11.0,47,0.00,,,0.00,meteohub,2013-06-29 23:31:00,
2013-06-29 18:36:00,66.9,46.0,28.74,NNE,22,7.0,11.0,47,0.00,,,0.00,meteohub,2013-06-29 23:36:00,
2013-06-29 18:41:00,66.7,45.9,28.74,NW,315,4.0,8.0,47,0.00,,,0.00,meteohub,2013-06-29 23:41:00,
2013-06-29 18:46:00,66.7,46.4,28.74,NNW,338,6.0,8.0,48,0.00,,,0.00,meteohub,2013-06-29 23:46:00,
2013-06-29 18:51:00,66.7,46.4,28.74,NNE,22,5.0,8.0,48,0.00,,,0.00,meteohub,2013-06-29 23:51:00,
2013-06-29 18:56:00,66.7,46.4,28.74,NNE,22,4.0,8.0,48,0.00,,,0.00,meteohub,2013-06-29 23:56:00,
2013-06-29 19:01:00,66.7,46.4,28.74,NNW,338,0.0,8.0,48,0.00,,,0.00,meteohub,2013-06-30 00:01:00,
2013-06-29 19:06:00,66.9,46.6,28.74,NNW,338,3.0,8.0,48,0.00,,,0.00,meteohub,2013-06-30 00:06:00,
2013-06-29 19:11:00,66.7,46.9,28.77,NW,315,5.0,7.0,49,0.00,,,0.00,meteohub,2013-06-30 00:11:00,
2013-06-29 19:16:00,66.7,46.9,28.77,North,0,6.0,7.0,49,0.00,,,0.00,meteohub,2013-06-30 00:16:00,
2013-06-29 19:21:00,66.7,46.9,28.77,NNW,338,2.0,10.0,49,0.00,,,0.00,meteohub,2013-06-30 00:21:00,
2013-06-29 19:26:00,66.7,46.9,28.77,NNE,22,6.0,10.0,49,0.00,,,0.00,meteohub,2013-06-30 00:26:00,
2013-06-29 19:31:00,66.7,46.9,28.77,NNW,338,0.0,10.0,49,0.00,,,0.00,meteohub,2013-06-30 00:31:00,
2013-06-29 19:36:00,66.6,46.8,28.77,North,0,6.0,10.0,49,0.00,,,0.00,meteohub,2013-06-30 00:36:00,
2013-06-29 19:41:00,66.6,47.3,28.77,NNW,338,6.0,10.0,50,0.00,,,0.00,meteohub,2013-06-30 00:41:00,
2013-06-29 19:46:00,66.6,47.3,28.77,North,0,3.0,10.0,50,0.00,,,0.00,meteohub,2013-06-30 00:46:00,
2013-06-29 19:51:00,66.6,47.3,28.77,North,0,0.0,9.0,50,0.00,,,0.00,meteohub,2013-06-30 00:51:00,
2013-06-29 19:56:00,66.4,47.1,28.77,North,0,1.0,9.0,50,0.00,,,0.00,meteohub,2013-06-30 00:56:00,
2013-06-29 20:01:00,66.4,47.7,28.77,ENE,68,6.0,7.0,51,0.00,,,0.00,meteohub,2013-06-30 01:01:00,
2013-06-29 20:06:00,66.2,47.5,28.77,NNE,22,1.0,9.0,51,0.00,,,0.00,meteohub,2013-06-30 01:06:00,
2013-06-29 20:11:00,66.2,48.0,28.77,NNW,338,5.0,9.0,52,0.00,,,0.00,meteohub,2013-06-30 01:11:00,
2013-06-29 20:16:00,66.2,48.0,28.77,NE,45,2.0,9.0,52,0.00,,,0.00,meteohub,2013-06-30 01:16:00,
2013-06-29 20:21:00,66.0,48.4,28.77,ENE,68,5.0,9.0,53,0.00,,,0.00,meteohub,2013-06-30 01:21:00,
2013-06-29 20:26:00,66.0,48.4,28.77,NNE,22,3.0,9.0,53,0.00,,,0.00,meteohub,2013-06-30 01:26:00,
2013-06-29 20:31:00,65.8,48.7,28.77,East,90,2.0,9.0,54,0.00,,,0.00,meteohub,2013-06-30 01:31:00,
2013-06-29 20:36:00,65.8,49.3,28.77,NNE,22,3.0,9.0,55,0.00,,,0.00,meteohub,2013-06-30 01:36:00,
2013-06-29 20:41:00,65.7,49.1,28.77,ENE,68,4.0,9.0,55,0.00,,,0.00,meteohub,2013-06-30 01:41:00,
2013-06-29 20:46:00,65.7,49.6,28.77,NNW,338,4.0,8.0,56,0.00,,,0.00,meteohub,2013-06-30 01:46:00,
2013-06-29 20:51:00,65.5,49.8,28.77,NNW,338,7.0,8.0,57,0.00,,,0.00,meteohub,2013-06-30 01:51:00,
2013-06-29 20:56:00,65.5,49.8,28.77,North,0,3.0,8.0,57,0.00,,,0.00,meteohub,2013-06-30 01:56:00,
2013-06-29 21:01:00,65.5,50.4,28.77,WNW,292,4.0,8.0,58,0.00,,,0.00,meteohub,2013-06-30 02:01:00,
2013-06-29 21:06:00,65.5,50.7,28.77,NNW,338,7.0,7.0,59,0.00,,,0.00,meteohub,2013-06-30 02:06:00,
2013-06-29 21:11:00,65.5,50.7,28.77,NNE,22,2.0,7.0,59,0.00,,,0.00,meteohub,2013-06-30 02:11:00,
2013-06-29 21:16:00,65.5,50.7,28.77,NNW,338,6.0,9.0,59,0.00,,,0.00,meteohub,2013-06-30 02:16:00,
2013-06-29 21:21:00,65.3,50.5,28.77,North,0,1.0,9.0,59,0.00,,,0.00,meteohub,2013-06-30 02:21:00,
2013-06-29 21:26:00,65.3,50.2,28.80,NNW,338,0.0,9.0,58,0.00,,,0.00,meteohub,2013-06-30 02:26:00,
2013-06-29 21:31:00,65.1,49.5,28.80,NNE,22,1.0,6.0,57,0.00,,,0.00,meteohub,2013-06-30 02:31:00,
2013-06-29 21:36:00,65.1,49.1,28.80,ENE,68,7.0,10.0,56,0.00,,,0.00,meteohub,2013-06-30 02:36:00,
2013-06-29 21:41:00,64.9,48.9,28.77,North,0,0.0,10.0,56,0.00,,,0.00,meteohub,2013-06-30 02:41:00,
2013-06-29 21:46:00,64.8,48.2,28.77,North,0,3.0,7.0,55,0.00,,,0.00,meteohub,2013-06-30 02:46:00,
2013-06-29 21:51:00,64.6,47.7,28.77,North,0,1.0,7.0,54,0.00,,,0.00,meteohub,2013-06-30 02:51:00,
2013-06-29 21:56:00,64.6,47.7,28.80,NNW,338,4.0,7.0,54,0.00,,,0.00,meteohub,2013-06-30 02:56:00,
2013-06-29 22:01:00,64.4,47.5,28.80,North,0,4.0,7.0,54,0.00,,,0.00,meteohub,2013-06-30 03:01:00,
2013-06-29 22:06:00,64.4,46.9,28.80,NE,45,2.0,9.0,53,0.00,,,0.00,meteohub,2013-06-30 03:06:00,
2013-06-29 22:11:00,64.2,47.3,28.80,North,0,5.0,11.0,54,0.00,,,0.00,meteohub,2013-06-30 03:11:00,
2013-06-29 22:16:00,64.2,47.3,28.80,North,0,2.0,11.0,54,0.00,,,0.00,meteohub,2013-06-30 03:16:00,
2013-06-29 22:21:00,64.2,47.3,28.80,NNW,338,2.0,11.0,54,0.00,,,0.00,meteohub,2013-06-30 03:21:00,
2013-06-29 22:26:00,64.2,47.3,28.80,North,0,6.0,8.0,54,0.00,,,0.00,meteohub,2013-06-30 03:26:00,
2013-06-29 22:32:00,64.2,47.3,28.80,NNE,22,3.0,6.0,54,0.00,,,0.00,meteohub,2013-06-30 03:32:00,
2013-06-29 22:37:00,64.2,47.3,28.80,NE,45,4.0,8.0,54,0.00,,,0.00,meteohub,2013-06-30 03:37:00,
2013-06-29 22:42:00,64.2,47.3,28.80,NNE,22,2.0,8.0,54,0.00,,,0.00,meteohub,2013-06-30 03:42:00,
2013-06-29 22:47:00,64.2,47.3,28.80,North,0,0.0,8.0,54,0.00,,,0.00,meteohub,2013-06-30 03:47:00,
2013-06-29 22:52:00,64.4,46.9,28.80,NNW,338,5.0,7.0,53,0.00,,,0.00,meteohub,2013-06-30 03:52:00,
2013-06-29 22:57:00,64.4,46.9,28.80,NNE,22,4.0,6.0,53,0.00,,,0.00,meteohub,2013-06-30 03:57:00,
2013-06-29 23:01:00,64.4,47.5,28.80,NNW,338,5.0,6.0,54,0.00,,,0.00,meteohub,2013-06-30 04:01:00,
2013-06-29 23:02:00,64.4,47.5,28.80,East,90,3.0,6.0,54,0.00,,,0.00,meteohub,2013-06-30 04:02:00,
2013-06-29 23:07:00,64.4,47.5,28.80,NNE,22,0.0,6.0,54,0.00,,,0.00,meteohub,2013-06-30 04:07:00,
2013-06-29 23:12:00,64.4,47.8,28.80,North,0,3.0,6.0,55,0.00,,,0.00,meteohub,2013-06-30 04:12:00,
2013-06-29 23:17:00,64.4,47.8,28.80,NNE,22,5.0,6.0,55,0.00,,,0.00,meteohub,2013-06-30 04:17:00,
2013-06-29 23:22:00,64.4,48.4,28.80,North,0,3.0,6.0,56,0.00,,,0.00,meteohub,2013-06-30 04:22:00,
2013-06-29 23:27:00,64.4,48.9,28.80,North,0,0.0,6.0,57,0.00,,,0.00,meteohub,2013-06-30 04:27:00,
2013-06-29 23:32:00,64.4,49.3,28.80,ESE,112,1.0,6.0,58,0.00,,,0.00,meteohub,2013-06-30 04:32:00,
2013-06-29 23:37:00,64.4,49.8,28.80,ENE,68,0.0,6.0,59,0.00,,,0.00,meteohub,2013-06-30 04:37:00,
2013-06-29 23:42:00,64.4,49.8,28.80,ENE,68,0.0,6.0,59,0.00,,,0.00,meteohub,2013-06-30 04:42:00,
2013-06-29 23:47:00,64.4,50.2,28.80,NNW,338,3.0,6.0,60,0.00,,,0.00,meteohub,2013-06-30 04:47:00,
2013-06-29 23:52:00,64.4,50.2,28.80,NE,45,2.0,6.0,60,0.00,,,0.00,meteohub,2013-06-30 04:52:00,
2013-06-29 23:57:00,64.4,50.7,28.80,NNW,338,0.0,6.0,61,0.00,,,0.00,meteohub,2013-06-30 04:57:00,